Погода в Порт-Луи

Маврикий     20°09′54″S   57°29′57″E
темп.,
°C
ветер,
м/с
пор.,
м/с
влажн.,
%
обл.,
%
осадки,
мм/ч
давл.,
гПа
погр.,
м
15 мая, сб
сб1501:00+22юв611762 0.0 1018774
04:00+22юв511773 0.0 1018726
07:00+21юв511750 0.0 1019722
10:00+25вюв79653 0.0 10191052
13:00+25вюв796647 0.2 10171231
16:00+24вюв697226 0.5 10171015
19:00+22вюв6108146 0.1 1017861
22:00+22вюв6107381 0.2 1019968
16 мая, вс
вс1601:00+21вюв610734 0.0 1018780
04:00+20вюв410751 0.0 1017483
07:00+21юв5108268 0.0 1018609
10:00+24в696915 0.3 10191080
13:00+26в67551 0.0 10171275
16:00+24вюв68683 0.1 1016971
19:00+22юв510774 0.0 1017655
22:00+22вюв510730 0.0 1018725
17 мая, пн
пн1701:00+21вюв510825 0.0 1017502
04:00+21в498633 0.6 1017513
07:00+21вюв498658 0.3 1018446
10:00+25в676544 0.5 10181197
13:00+25в686734 0.1 10161268
16:00+24в68623 0.3 10161038
19:00+22вюв49765 0.0 1017548
22:00+22вюв598151 0.0 1018667
18 мая, вт
вт1801:00+21вюв49815 0.0 1017509
04:00+20вюв410814 0.0 1016463
07:00+20юв4107783 0.0 1017420
10:00+25вюв576411 0.0 10171224
13:00+26юв455455 0.0 10161313
16:00+24вюв5661100 0.0 10151035
19:00+22юв48788 0.0 1016587
22:00+21юв48755 0.1 1017455
19 мая, ср
ср1901:00+20ююв377438 0.0 1016275
04:00+20ююв388654 0.0 1015339
07:00+20ююв510815 0.0 1016470
10:00+24юв67615 0.0 10171105
13:00+25ююв67530 0.0 10151347
16:00+23юв79590 0.0 10141220
19:00+21юв610670 0.0 1016966
22:00+21юв510753 0.0 1017790